Weather History for Drummond Island, MI

Change the Weather History Date:

Thursday, February 7, 2013

  Actual Average (KCIU) Record (KCIU)
Temperature  
Mean Temperature 10 °F -  
Max Temperature 14 °F 26 °F 37 °F (2005)
Min Temperature 6 °F 2 °F -21 °F (1984)
Degree Days  
Heating Degree Days 55    
Moisture  
Dew Point 8 °F    
Average Humidity 87    
Maximum Humidity 89    
Minimum Humidity 83    
Precipitation  
Precipitation 0.00 in - - ()
Sea Level Pressure  
Sea Level Pressure 30.21 in    
Wind  
Wind Speed 9 mph (ENE)    
Max Wind Speed 13 mph    
Max Gust Speed 23 mph    
Visibility 3 miles    
Events Snow    
Averages and records for this station are not official NWS values.
T = Trace of Precipitation, MM = Missing Value Source: NWS Daily Summary

Daily Weather History Graph

Daily Weather History Graph

Search for Another Location

Airport:

Trip Planner

Search our weather history database for the weather conditions in past years. The results will help you decide how hot, cold, wet, or windy it might be!

Date:

Astronomy

Feb. 07, 2013 Rise Set
Actual Time 7:49 AM EST 5:49 PM EST
Civil Twilight 7:17 AM EST 6:21 PM EST
Nautical Twilight 6:42 AM EST 6:56 PM EST
Astronomical Twilight 6:07 AM EST 7:31 PM EST
Moon 5:33 AM EST (2/7) 3:08 PM EST (2/7)
Length of Visible Light 11h 03m
Length of Day
10h 00m
Waning Crescent, 9% of the Moon is Illuminated
Feb 7
Waning Crescent
Feb 10
New
Feb 17
First Quarter
Feb 25
Full
Mar 4
Last Quarter

Hourly Weather History & Observations

Time (EST) Temp. Windchill Dew Point Humidity Pressure Visibility Wind Dir Wind Speed Gust Speed Precip Events Conditions
12:16 AM 10.4 °F -0.4 °F 7.5 °F 88% 30.23 in 3.0 mi East 6.9 mph - N/A Snow Light Snow
12:36 AM 10.4 °F 0.8 °F 7.5 °F 88% 30.24 in 2.5 mi East 5.8 mph - N/A Snow Light Snow
12:56 AM 10.4 °F 0.8 °F 7.5 °F 88% 30.25 in 4.0 mi East 5.8 mph - N/A Snow Light Snow
1:16 AM 10.4 °F 0.8 °F 7.7 °F 89% 30.24 in 1.8 mi East 5.8 mph - N/A Snow Light Snow
1:35 AM 10.6 °F -1.3 °F 7.7 °F 88% 30.24 in 2.5 mi East 8.1 mph - N/A Snow Light Snow
1:56 AM 10.9 °F -0.8 °F 7.9 °F 87% 30.25 in 2.5 mi East 8.1 mph - N/A Snow Light Snow
2:16 AM 10.9 °F -1.8 °F 8.1 °F 88% 30.25 in 1.8 mi ENE 9.2 mph 16.1 mph N/A Snow Light Snow
2:35 AM 11.1 °F 0.4 °F 8.4 °F 89% 30.24 in 1.8 mi East 6.9 mph - N/A Snow Light Snow
2:56 AM 11.1 °F -2.4 °F 8.4 °F 89% 30.24 in 1.5 mi ENE 10.4 mph 20.7 mph N/A Snow Light Snow
3:16 AM 11.1 °F -2.4 °F 8.2 °F 88% 30.25 in 1.8 mi ENE 10.4 mph 18.4 mph N/A Snow Light Snow
3:35 AM 11.1 °F -2.4 °F 8.2 °F 88% 30.24 in 2.5 mi East 10.4 mph - N/A Snow Light Snow
3:56 AM 11.1 °F -0.6 °F 8.2 °F 88% 30.25 in 2.0 mi ENE 8.1 mph 16.1 mph N/A Snow Light Snow
4:16 AM 11.1 °F -3.2 °F 8.4 °F 89% 30.25 in 1.2 mi East 11.5 mph - N/A Snow Snow
4:35 AM 10.9 °F 0.2 °F 8.2 °F 89% 30.23 in 1.0 mi East 6.9 mph - N/A Snow Snow
4:56 AM 10.9 °F -0.8 °F 8.2 °F 89% 30.23 in 1.5 mi East 8.1 mph - N/A Snow Light Snow
5:16 AM 10.9 °F -2.6 °F 8.1 °F 88% 30.24 in 1.8 mi East 10.4 mph 19.6 mph N/A Snow Light Snow
5:36 AM 10.8 °F -2.0 °F 7.7 °F 87% 30.23 in 1.8 mi East 9.2 mph 19.6 mph N/A Snow Light Snow
5:56 AM 10.4 °F -2.4 °F 7.7 °F 89% 30.23 in 2.0 mi East 9.2 mph 17.3 mph N/A Snow Light Snow
6:15 AM 10.4 °F -3.3 °F 7.5 °F 88% 30.23 in 2.0 mi East 10.4 mph 23.0 mph N/A Snow Light Snow
6:36 AM 10.2 °F -0.6 °F 7.3 °F 88% 30.23 in 1.8 mi East 6.9 mph 18.4 mph N/A Snow Light Snow
6:56 AM 10.0 °F -3.7 °F 6.8 °F 87% 30.23 in 2.0 mi East 10.4 mph 18.4 mph N/A Snow Light Snow
7:15 AM 9.9 °F -4.0 °F 6.8 °F 87% 30.24 in 1.8 mi East 10.4 mph 18.4 mph N/A Snow Light Snow
7:36 AM 9.5 °F -3.5 °F 6.4 °F 87% 30.23 in 1.2 mi East 9.2 mph 21.9 mph N/A Snow Light Snow
7:56 AM 9.0 °F -5.1 °F 5.9 °F 87% 30.24 in 0.8 mi East 10.4 mph 23.0 mph N/A Snow Light Snow
8:15 AM 8.4 °F -6.5 °F 5.5 °F 88% 30.24 in 0.8 mi East 11.5 mph 18.4 mph N/A Snow Light Snow
8:36 AM 8.1 °F -4.3 °F 4.8 °F 87% 30.24 in 1.0 mi East 8.1 mph 20.7 mph N/A Snow Light Snow
8:55 AM 7.5 °F -6.0 °F 4.1 °F 86% 30.25 in 0.8 mi ENE 9.2 mph 19.6 mph N/A Snow Light Snow
9:16 AM 7.2 °F -8.1 °F 3.7 °F 86% 30.25 in 1.5 mi East 11.5 mph 17.3 mph N/A Snow Light Snow
9:36 AM 6.6 °F -6.1 °F 3.0 °F 85% 30.26 in 1.8 mi ENE 8.1 mph 18.4 mph N/A Snow Light Snow
9:55 AM 6.6 °F -8.8 °F 2.7 °F 84% 30.26 in 2.0 mi East 11.5 mph 18.4 mph N/A Snow Light Snow
10:16 AM 6.6 °F -7.1 °F 2.7 °F 84% 30.25 in 2.0 mi East 9.2 mph 19.6 mph N/A Snow Light Snow
10:35 AM 6.8 °F -9.3 °F 3.0 °F 84% 30.26 in 1.8 mi East 12.7 mph 20.7 mph N/A Snow Light Snow
10:56 AM 7.0 °F -6.6 °F 3.0 °F 84% 30.25 in 1.8 mi ENE 9.2 mph 17.3 mph N/A Snow Light Snow
11:15 AM 7.2 °F -8.1 °F 3.0 °F 83% 30.25 in 1.5 mi ENE 11.5 mph 20.7 mph N/A Snow Light Snow
11:36 AM 7.3 °F -7.9 °F 3.2 °F 83% 30.25 in 1.8 mi ENE 11.5 mph 20.7 mph N/A Snow Light Snow
11:56 AM 7.7 °F -3.7 °F 3.6 °F 83% 30.24 in 2.0 mi ENE 6.9 mph 19.6 mph N/A Snow Light Snow
12:16 PM 7.7 °F -5.8 °F 3.7 °F 84% 30.24 in 2.0 mi ENE 9.2 mph 19.6 mph N/A Snow Light Snow
12:35 PM 8.1 °F -4.3 °F 3.9 °F 83% 30.23 in 5.0 mi ENE 8.1 mph 18.4 mph N/A Snow Light Snow
12:56 PM 8.2 °F -5.1 °F 4.1 °F 83% 30.22 in 5.0 mi ENE 9.2 mph 19.6 mph N/A   Overcast
1:15 PM 8.6 °F -5.5 °F 4.8 °F 85% 30.22 in 4.0 mi ENE 10.4 mph 18.4 mph N/A Snow Light Snow
1:36 PM 8.8 °F -3.5 °F 5.0 °F 85% 30.20 in 4.0 mi ENE 8.1 mph 18.4 mph N/A Snow Light Snow
1:56 PM 9.3 °F -5.4 °F 5.5 °F 85% 30.19 in 4.0 mi ENE 11.5 mph 18.4 mph N/A Snow Light Snow
2:15 PM 9.9 °F -4.0 °F 6.1 °F 85% 30.19 in 4.0 mi ENE 10.4 mph 18.4 mph N/A Snow Light Snow
2:36 PM 10.0 °F -3.7 °F 6.6 °F 86% 30.19 in 4.0 mi ENE 10.4 mph 17.3 mph N/A Snow Light Snow
2:56 PM 10.4 °F -1.5 °F 7.3 °F 87% 30.18 in 4.0 mi NE 8.1 mph - N/A Snow Light Snow
3:15 PM 10.9 °F -1.8 °F 7.5 °F 86% 30.18 in 4.0 mi ENE 9.2 mph 20.7 mph N/A Snow Light Snow
3:36 PM 11.3 °F 0.7 °F 8.2 °F 87% 30.17 in 5.0 mi ENE 6.9 mph 16.1 mph N/A Snow Light Snow
3:56 PM 11.8 °F -2.3 °F 8.6 °F 87% 30.17 in 4.0 mi ENE 11.5 mph 18.4 mph N/A Snow Light Snow
4:15 PM 11.8 °F 0.3 °F 8.6 °F 87% 30.16 in 5.0 mi ENE 8.1 mph 16.1 mph N/A Snow Light Snow
4:36 PM 12.0 °F -2.0 °F 8.6 °F 86% 30.16 in 5.0 mi ENE 11.5 mph 18.4 mph N/A Snow Light Snow
4:55 PM 12.2 °F 0.7 °F 9.3 °F 88% 30.16 in 4.0 mi ENE 8.1 mph 16.1 mph N/A Snow Light Snow
5:16 PM 12.4 °F 0.0 °F 9.5 °F 88% 30.15 in 3.0 mi ENE 9.2 mph 17.3 mph N/A Snow Light Snow
5:36 PM 12.7 °F 1.4 °F 9.9 °F 88% 30.15 in 2.5 mi ENE 8.1 mph 17.3 mph N/A Snow Light Snow
5:55 PM 12.9 °F -1.6 °F 10.0 °F 88% 30.15 in 2.5 mi ENE 12.7 mph 23.0 mph N/A Snow Light Snow
6:16 PM 13.1 °F 0.9 °F 10.2 °F 88% 30.16 in 2.0 mi ENE 9.2 mph 16.1 mph N/A Snow Light Snow
6:36 PM 13.5 °F 1.3 °F 10.8 °F 89% 30.16 in 3.0 mi ENE 9.2 mph 20.7 mph N/A Snow Light Snow
6:56 PM 13.8 °F -0.5 °F 10.9 °F 88% 30.15 in 4.0 mi ENE 12.7 mph 21.9 mph N/A Snow Light Snow
7:16 PM 14.0 °F 1.2 °F 11.3 °F 89% 30.15 in 3.0 mi ENE 10.4 mph 17.3 mph N/A Snow Light Snow
7:35 PM 13.8 °F 1.0 °F 10.9 °F 88% 30.15 in 2.5 mi ENE 10.4 mph 18.4 mph N/A Snow Light Snow
7:56 PM 14.2 °F 0.7 °F 11.3 °F 88% 30.15 in 3.0 mi ENE 11.5 mph 19.6 mph N/A Snow Light Snow
8:16 PM 14.5 °F 1.9 °F 11.8 °F 89% 30.15 in 3.0 mi ENE 10.4 mph 19.6 mph N/A Snow Light Snow
8:35 PM 14.5 °F 1.1 °F 11.7 °F 88% 30.16 in 4.0 mi ENE 11.5 mph 18.4 mph N/A Snow Light Snow
8:56 PM 14.2 °F 2.2 °F 11.3 °F 88% 30.15 in 5.0 mi ENE 9.2 mph 21.9 mph N/A Snow Light Snow
9:16 PM 14.4 °F 1.6 °F 11.3 °F 88% 30.15 in 7.0 mi ENE 10.4 mph 23.0 mph N/A   Overcast
9:35 PM 14.5 °F 1.9 °F 11.5 °F 88% 30.15 in 7.0 mi ENE 10.4 mph 19.6 mph N/A   Overcast
9:56 PM 14.7 °F 1.4 °F 11.3 °F 86% 30.15 in 10.0 mi ENE 11.5 mph 20.7 mph N/A   Overcast
10:16 PM 14.5 °F 1.1 °F 11.3 °F 87% 30.15 in 10.0 mi ENE 11.5 mph 18.4 mph N/A Snow Light Snow
10:36 PM 14.5 °F 3.6 °F 11.5 °F 88% 30.15 in 10.0 mi ENE 8.1 mph - N/A Snow Light Snow
10:56 PM 14.7 °F 2.1 °F 11.8 °F 88% 30.15 in 5.0 mi NE 10.4 mph 17.3 mph N/A Snow Light Snow
11:15 PM 14.7 °F 3.8 °F 11.8 °F 88% 30.15 in 3.0 mi ENE 8.1 mph 20.7 mph N/A Snow Light Snow
11:36 PM 14.7 °F 2.9 °F 11.7 °F 88% 30.16 in 3.0 mi ENE 9.2 mph 16.1 mph N/A Snow Light Snow
11:56 PM 14.9 °F 4.0 °F 11.8 °F 88% 30.15 in 3.0 mi NE 8.1 mph - N/A Snow Light Snow